Location: *
(49.4547°N, 7.9131°E)
Time: 06:59:46
(UTC+00:00)

Terra - Pass Details

Date: 22 September 2019
Orbit: 701 x 703 km, 98.2° (Epoch: 15 October)

Event Time Altitude Azimuth Distance (km) Brightness Sun altitude
Exits shadow 19:42:20 14° 46° (NE) 1,892 3.9 -21.9°
Drops below altitude 10° 19:44:15 10° 22° (NNE) 2,182 4.4 -22.2°
Sets 19:47:25 0° 360° (N) 3,105 5.6 -22.6°
